Flag for U.S.A. Weather past 2 weeks in Missoula, Montana, U.S.A.

Now
72 °F

Clear.


Feels Like: 77 °F
Forecast: 60 / 94 °F
Wind: No wind

Location: Missoula International Airport

Current Time: Jul 3, 2015 at 1:19:48 AM

Latest Report: Jul 3, 2015 at 12:53 AM


Visibility: 10 mi

Pressure: 29.90 "Hg

Humidity: 43%

Dew point: 48 °F

Location of MissoulaLocation

Historic Weather in Missoula — Graph

°F

Missoula temperature yesterday

Maximum temperature yesterday: 94 °F (at 4:53 PM)
Minimum temperature yesterday: 69 °F (at 5:53 AM)
Average temperature yesterday: 81 °F

Past Weeks' High & Low Weather Summary

 TemperatureHumidityPressure
High102 °F (Jun 28, 4:53 PM)91% (Jun 30, 4:53 AM)30.17 "Hg (Jun 30, 4:53 AM)
Low48 °F (Jun 20, 5:53 AM)10% (Jun 28, 5:53 PM)29.79 "Hg (Jun 18, 6:53 PM)
Average73 °F35%29.96 "Hg
* Reported Jun 17 11:53 PM — Jul 2 11:53 PM, Missoula, Weather by CustomWeather, © 2015

Note: Actual official high and low records may vary slightly from our data, if they occured in-between our weather recording intervals... More about our weather records

Advertising

Missoula weather history for previous 24 hours

 ConditionsComfort  
Time TempWeatherWind HumidityBarometerVisibility
11:53 PM
Thu, Jul 2
72 °FClear.No wind40%29.90 "Hg10 mi
10:53 PM74 °FClear.3 mph38%29.89 "Hg10 mi
9:53 PM81 °FSunny.5 mph30%29.87 "Hg10 mi
8:53 PM86 °FSunny.9 mph25%29.86 "Hg10 mi
7:53 PM90 °FSunny.8 mph20%29.86 "Hg10 mi
6:53 PM93 °FSunny.9 mph18%29.86 "Hg10 mi
5:53 PM93 °FSunny.9 mph17%29.88 "Hg10 mi
4:53 PM94 °FSunny.14 mph15%29.90 "Hg10 mi
3:53 PM91 °FSunny.6 mph19%29.92 "Hg10 mi
2:53 PM90 °FSunny.5 mph19%29.95 "Hg10 mi
1:53 PM89 °FSunny.7 mph20%29.97 "Hg10 mi
12:53 PM87 °FSunny.3 mph25%29.98 "Hg10 mi
11:53 AM82 °FSunny.3 mph32%30.01 "Hg10 mi
10:53 AM80 °FSunny.7 mph36%30.03 "Hg10 mi
9:53 AM78 °FSunny.15 mph37%30.04 "Hg10 mi
8:53 AM75 °FSunny.16 mph43%30.05 "Hg10 mi
7:53 AM72 °FSunny.17 mph48%30.05 "Hg10 mi
6:53 AM70 °FSunny.10 mph51%30.04 "Hg10 mi
5:53 AM69 °FClear.10 mph53%30.03 "Hg10 mi
4:53 AM71 °FClear.13 mph49%30.02 "Hg10 mi
3:53 AM72 °FClear.13 mph48%30.01 "Hg10 mi
2:53 AM72 °FClear.8 mph48%30.00 "Hg10 mi
1:53 AM75 °FClear.8 mph43%29.98 "Hg9 mi
Weather by CustomWeather, © 2015

See weather overviewHow to use our weather pages